KC2GYU Weather Reports


time (UTC)temp
C
wind
direction
speed
KPH
gust
KPH
rain 1hr
cm
rain 24hr
cm
rain mn
cm
humidity
%
barometer
mb
20260505022922 13 266 0.0 0.0 0.00 0.00 0.00 94 1012.7
20260505022420 13 261 0.0 0.0 0.00 0.00 0.00 94 1012.8
20260505021917 13 35 1.6 4.8 0.00 0.00 0.00 94 1012.9
20260505021413 13 297 0.0 0.0 0.00 0.00 0.00 94 1012.8
20260505020909 13 264 0.0 1.6 0.00 0.00 0.00 94 1013.0
20260505020404 13 225 0.0 0.0 0.00 0.00 0.00 94 1012.8
20260505015901 13 276 0.0 0.0 0.00 0.00 0.00 93 1012.8
20260505015358 13 269 0.0 0.0 0.00 0.00 0.00 93 1012.6
20260505014856 13 261 0.0 0.0 0.00 0.00 0.00 93 1012.7
20260505014353 13 268 0.0 0.0 0.00 0.00 0.00 92 1012.7
20260505013849 13 262 0.0 0.0 0.00 0.00 0.00 92 1012.7
20260505013346 13 258 0.0 0.0 0.00 0.00 0.00 92 1012.8
20260505012845 13 220 0.0 0.0 0.00 0.00 0.00 91 1012.6
20260505012343 13 259 0.0 0.0 0.00 0.00 0.00 91 1012.5
20260505011838 13 266 0.0 0.0 0.00 0.00 0.00 90 1012.6
20260505011335 13 268 0.0 0.0 0.00 0.00 0.00 90 1012.5
20260505010831 13 267 0.0 0.0 0.00 0.00 0.00 89 1012.6
20260505010327 13 298 0.0 0.0 0.00 0.00 0.00 89 1012.7
20260505005823 14 254 0.0 0.0 0.00 0.00 0.00 88 1012.5
20260505005321 14 274 0.0 0.0 0.00 0.00 0.00 89 1012.6
20260505004818 14 262 0.0 0.0 0.00 0.00 0.00 89 1012.5
20260505004314 13 261 0.0 0.0 0.00 0.00 0.00 89 1012.6
20260505003812 14 258 0.0 0.0 0.00 0.00 0.00 89 1012.6
20260505003309 14 263 0.0 0.0 0.00 0.00 0.00 88 1012.6
20260505002805 14 275 0.0 0.0 0.00 0.00 0.00 88 1012.6
20260505002304 14 260 0.0 0.0 0.00 0.00 0.00 87 1012.4
20260505001800 15 266 0.0 0.0 0.00 0.00 0.00 86 1012.6
20260505001257 15 260 0.0 0.0 0.00 0.00 0.00 85 1012.1
20260505000754 15 259 0.0 0.0 0.00 0.00 0.00 84 1012.3
20260505000252 15 263 0.0 0.0 0.00 0.00 0.00 83 1012.3
20260504235748 15 250 0.0 0.0 0.00 0.00 0.00 83 1012.0
20260504235244 15 268 0.0 0.0 0.00 0.00 0.00 82 1012.2
20260504234742 15 264 0.0 0.0 0.00 0.00 0.00 82 1012.1
20260504234239 15 288 0.0 0.0 0.00 0.00 0.00 82 1012.0
20260504233735 15 252 0.0 0.0 0.00 0.00 0.00 81 1011.8
20260504233231 16 226 0.0 0.0 0.00 0.00 0.00 80 1011.9
20260504232729 16 240 0.0 0.0 0.00 0.00 0.00 79 1012.0
20260504232225 16 264 0.0 0.0 0.00 0.00 0.00 79 1011.9
20260504231722 16 288 0.0 0.0 0.00 0.00 0.00 78 1012.0
20260504231218 16 265 0.0 0.0 0.00 0.00 0.00 78 1011.9
20260504230714 16 265 0.0 0.0 0.00 0.00 0.00 77 1011.9
20260504230214 16 210 0.0 0.0 0.00 0.00 0.00 76 1011.8
20260504225712 17 297 0.0 0.0 0.00 0.00 0.00 76 1011.9
20260504225208 17 262 0.0 0.0 0.00 0.00 0.00 76 1011.9
20260504224705 17 256 0.0 0.0 0.00 0.00 0.00 76 1011.8
20260504224202 17 257 0.0 0.0 0.00 0.00 0.00 76 1011.9
20260504223659 17 267 0.0 0.0 0.00 0.00 0.00 76 1012.0
20260504223154 17 263 0.0 0.0 0.00 0.00 0.00 76 1011.8
20260504222651 17 317 0.0 0.0 0.00 0.00 0.00 75 1011.8
20260504222148 17 312 0.0 0.0 0.00 0.00 0.00 75 1011.9
20260504221645 17 271 0.0 0.0 0.00 0.00 0.00 75 1011.7
20260504221143 17 240 0.0 0.0 0.00 0.00 0.00 74 1011.7
20260504220639 17 243 0.0 0.0 0.00 0.00 0.00 73 1011.7
20260504220137 18 274 0.0 0.0 0.00 0.00 0.00 73 1012.0
20260504215632 18 270 0.0 0.0 0.00 0.00 0.00 73 1011.7
20260504215130 18 235 0.0 0.0 0.00 0.00 0.00 73 1011.9
20260504214626 18 245 0.0 0.0 0.00 0.00 0.00 73 1011.7
20260504214122 18 260 0.0 0.0 0.00 0.00 0.00 73 1012.0
20260504213619 18 252 0.0 0.0 0.00 0.00 0.00 74 1011.8
20260504213116 18 281 0.0 0.0 0.00 0.00 0.00 73 1011.8
20260504212612 18 254 0.0 0.0 0.00 0.00 0.00 73 1011.8
20260504212109 18 243 0.0 0.0 0.00 0.00 0.00 73 1012.0
20260504211606 19 247 0.0 0.0 0.00 0.00 0.00 73 1012.0
20260504211103 19 271 0.0 0.0 0.00 0.00 0.00 71 1012.1
20260504210600 19 269 0.0 0.0 0.00 0.00 0.00 71 1012.1
20260504210056 18 270 0.0 0.0 0.00 0.00 0.00 71 1012.2
20260504205554 19 228 0.0 0.0 0.00 0.00 0.00 71 1012.2
20260504205052 19 262 0.0 0.0 0.00 0.00 0.00 71 1012.3
20260504204550 19 272 0.0 0.0 0.00 0.00 0.00 72 1012.3
20260504204043 18 262 0.0 0.0 0.00 0.00 0.00 73 1012.3
20260504203541 18 257 0.0 0.0 0.00 0.00 0.00 73 1012.4
20260504203038 18 220 0.0 0.0 0.00 0.00 0.00 73 1012.6
20260504202533 18 261 0.0 0.0 0.00 0.00 0.00 73 1012.5
20260504202030 18 271 0.0 0.0 0.00 0.00 0.00 74 1012.4
20260504201527 18 250 0.0 0.0 0.00 0.00 0.00 72 1012.6
20260504201025 18 324 0.0 0.0 0.00 0.00 0.00 72 1012.8
20260504200521 20 277 0.0 0.0 0.00 0.00 0.00 71 1012.7
20260504200018 20 272 0.0 0.0 0.00 0.00 0.00 71 1012.6
20260504195514 19 271 0.0 0.0 0.00 0.00 0.00 73 1012.5
20260504195011 19 263 0.0 0.0 0.00 0.00 0.00 71 1012.8
20260504194508 19 280 0.0 0.0 0.00 0.00 0.00 72 1013.1
20260504194002 19 282 0.0 0.0 0.00 0.00 0.00 72 1013.0
20260504193455 18 244 0.0 0.0 0.00 0.00 0.00 73 1013.2
20260504192954 19 268 0.0 0.0 0.00 0.00 0.00 73 1013.3
20260504192450 18 266 0.0 0.0 0.00 0.00 0.00 74 1013.1
20260504191949 18 267 0.0 0.0 0.00 0.00 0.00 73 1013.2
20260504191447 19 258 0.0 0.0 0.00 0.00 0.00 72 1013.1
20260504190942 19 274 0.0 0.0 0.00 0.00 0.00 72 1013.1
20260504190438 19 250 0.0 0.0 0.00 0.00 0.00 72 1013.4
20260504185935 20 167 0.0 0.0 0.00 0.00 0.00 72 1013.2
20260504185432 19 273 0.0 0.0 0.00 0.00 0.00 72 1013.5
20260504184928 19 259 0.0 0.0 0.00 0.00 0.00 72 1013.6
20260504184424 19 228 0.0 0.0 0.00 0.00 0.00 69 1013.6
20260504183920 18 288 0.0 0.0 0.00 0.00 0.00 71 1013.6
20260504183417 19 142 0.0 0.0 0.00 0.00 0.00 71 1013.3
20260504182915 19 289 0.0 0.0 0.00 0.00 0.00 71 1013.6
20260504182412 19 291 0.0 0.0 0.00 0.00 0.00 70 1013.7
20260504181909 19 282 0.0 0.0 0.00 0.00 0.00 68 1013.6
20260504181406 19 285 0.0 0.0 0.00 0.00 0.00 69 1013.7
20260504180905 19 267 0.0 0.0 0.00 0.00 0.00 70 1013.9
20260504180403 20 255 0.0 0.0 0.00 0.00 0.00 68 1013.8
20260504175901 20 268 6.4 8.0 0.00 0.00 0.00 65 1013.8
20260504175357 20 265 4.8 8.0 0.00 0.00 0.00 66 1014.2
20260504174855 20 271 3.2 3.2 0.00 0.00 0.00 67 1014.1
20260504174353 20 241 6.4 8.0 0.00 0.00 0.00 65 1013.9
20260504173850 20 272 3.2 4.8 0.00 0.00 0.00 66 1014.0
20260504173346 20 275 1.6 1.6 0.00 0.00 0.00 68 1013.9
20260504172844 20 278 6.4 14.5 0.00 0.00 0.00 68 1014.2
20260504172340 20 287 4.8 8.0 0.00 0.00 0.00 67 1014.1
20260504171836 20 264 4.8 4.8 0.00 0.00 0.00 67 1014.2
20260504171333 20 250 3.2 3.2 0.00 0.00 0.00 68 1014.3
20260504170830 20 284 4.8 8.0 0.00 0.00 0.00 69 1014.4
20260504170327 20 270 6.4 9.7 0.00 0.00 0.00 68 1014.3
20260504160245 21 272 3.2 4.8 0.00 0.00 0.00 66 1014.9
20260504150711 20 234 1.6 3.2 0.00 0.00 0.00 59 1015.4
20260504150208 19 259 3.2 4.8 0.00 0.00 0.00 62 1015.4
20260504141136 18 247 8.0 9.7 0.00 0.00 0.00 61 1015.3
20260504140633 18 238 3.2 4.8 0.00 0.00 0.00 63 1015.5
20260504140129 18 286 8.0 11.3 0.00 0.00 0.00 61 1015.6
20260504130557 16 241 4.8 4.8 0.00 0.00 0.00 71 1016.0
20260504110444 11 268 0.0 0.0 0.00 0.00 0.00 84 1016.9
20260504100401 8 265 0.0 0.0 0.00 0.00 0.00 83 1016.9
20260504081754 8 267 0.0 0.0 0.00 0.00 0.00 78 1017.0
20260504081250 8 254 1.6 1.6 0.00 0.00 0.00 77 1016.7
20260504080747 8 262 0.0 1.6 0.00 0.00 0.00 76 1016.9
20260504080243 8 271 0.0 0.0 0.00 0.00 0.00 76 1016.8
20260504070211 7 268 0.0 0.0 0.00 0.00 0.00 82 1016.5